Home   Weather   Hyderabad   Past weeks

Flag for India Past Weather in Hyderabad, Telangana, India — Yesterday and Last 2 Weeks

Now
64 °F

Haze.


Feels Like: 64 °F
Forecast: 59 / 84 °F
Wind: No wind

Location: Hyderabad Airport

Current Time: Jan 19, 2017 at 10:37:54 pm

Latest Report: Jan 19, 2017 at 10:00 pm


Visibility: 3 mi

Pressure: 30.18 "Hg (28.44 "Hg at 507m altitude)

Humidity: 64%

Dew Point: 52 °F

Location of HyderabadLocation

Past Weather in Hyderabad — Graph

°F

Hyderabad Temperature Yesterday

Maximum temperature yesterday: 82 °F (at 12:30 pm)
Minimum temperature yesterday: 57 °F (at 6:00 am)
Average temperature yesterday: 74 °F

High & Low Weather Summary for the Past Weeks

 TemperatureHumidityPressure
High97 °F (Jan 19, 2:30 pm)94% (Jan 10, 6:30 am)30.21 "Hg (Jan 10, 6:30 am)
Low52 °F (Jan 5, 7:00 am)20% (Jan 6, 1:00 pm)29.86 "Hg (Jan 7, 4:30 pm)
Average74 °F48%30.03 "Hg
* Reported Jan 4 9:30 pm — Jan 19 9:30 pm, Hyderabad, Weather by CustomWeather, © 2017

Note: Actual official high and low records may vary slightly from our data, if they occured in-between our weather recording intervals... More about our weather records

Advertising

Hyderabad Weather History for the Previous 24 Hours

Scroll right to see more
 ConditionsComfort  
Time TempWeatherWind HumidityBarometerVisibility
9:30 pm
Thu, Jan 19
68 °FHaze.2 mph56%30.18 "Hg3 mi
9:00 pm68 °FHaze.2 mph56%30.15 "Hg3 mi
8:30 pm70 °FHaze.2 mph57%30.15 "Hg3 mi
8:00 pm70 °FHaze.2 mph53%30.15 "Hg3 mi
6:30 pm72 °FHaze.2 mph50%30.09 "Hg3 mi
6:00 pm73 °FHaze.2 mph47%30.09 "Hg3 mi
5:30 pm75 °FHaze.3 mph44%30.09 "Hg3 mi
5:00 pm77 °FHaze.3 mph42%30.09 "Hg3 mi
4:30 pm77 °FScattered clouds.3 mph42%30.09 "Hg3 mi
4:00 pm77 °FScattered clouds.5 mph42%30.09 "Hg3 mi
3:30 pm77 °FScattered clouds.5 mph44%30.09 "Hg3 mi
3:00 pm79 °FScattered clouds.5 mph42%30.09 "Hg3 mi
2:30 pm97 °FScattered clouds.5 mph23%30.09 "Hg3 mi
2:00 pm81 °FHaze.6 mph42%30.09 "Hg3 mi
1:30 pm81 °FHaze.7 mph42%30.12 "Hg3 mi
1:00 pm79 °FHaze.9 mph45%30.12 "Hg3 mi
12:30 pm79 °FHaze.7 mph45%30.15 "Hg3 mi
12:00 pm77 °FHaze.9 mph51%30.15 "Hg3 mi
11:30 am77 °FHaze.5 mph51%30.18 "Hg2 mi
11:00 am75 °FHaze.7 mph57%30.21 "Hg2 mi
10:30 am75 °FHaze.5 mph57%30.21 "Hg2 mi
10:00 am73 °FHaze.7 mph61%30.21 "Hg2 mi
9:30 am70 °FHaze.6 mph69%30.21 "Hg2 mi
9:00 am68 °FHaze.5 mph69%30.18 "Hg2 mi
8:30 am63 °FHaze.5 mph77%30.18 "Hg2 mi
8:00 am61 °FHaze.2 mph77%30.15 "Hg2 mi
7:30 am57 °FFog.No wind82%30.15 "Hg1 mi
7:00 am57 °FFog.No wind77%30.12 "Hg1 mi
6:30 am55 °FFog.2 mph82%30.12 "Hg1 mi
6:00 am55 °FFog.No wind77%30.09 "Hg1 mi
Weather by CustomWeather, © 2017

See weather overviewHow to use our weather pages